Skip Page Navigation
NASA JPL Caltech
NASA Logo - Jet Propulsion Laboratory + View the NASA Portal
+ Center for Near-Earth Object Studies
JPL Home Earth Solar System Stars & Galaxies Technology
JPL Solar System Dynamics
BODIES ORBITS EPHEMERIDES TOOLS PHYSICAL DATA DISCOVERY FAQ SITE MAP
IMPORTANT: The SSD Announcement email list is now available. Major changes are coming in the near future, including possible hostname and/or URL changes. To be notified of such changes, subscribe to this email list.

Please visit this page for more details.


JPL Small-Body Database Browser
Search: [ help ]  
1602 Indiana (1950 GF)
Classification: Main-belt Asteroid          SPK-ID: 2001602
Ephemeris | Orbit Diagram | Orbital Elements | Mission Design | Physical Parameters | Discovery Circumstances ]

[ show orbit diagram ]
Orbital Elements at Epoch 2459000.5 (2020-May-31.0) TDB
Reference: JPL 42 (heliocentric ecliptic J2000)
 Element Value Uncertainty (1-sigma)   Units 
e .1044448660321221 3.1763e-08  
a 2.244639574830237 5.1368e-09 au
q 2.010198495146693 7.1826e-08 au
i 4.1620035951048 3.1544e-06 deg
node 75.13163600386974 4.9241e-05 deg
peri 73.05970226436378 5.1784e-05 deg
M 350.7007700242006 1.5458e-05 deg
tp 2459032.229471455092
(2020-Jul-01.72947146)
5.2748e-05 TDB
period 1228.339309121249
3.36
4.2165e-06
1.154e-08
d
yr
n .2930786284593816 1.0061e-09 deg/d
Q 2.47908065451378 5.6733e-09 au
  Orbit Determination Parameters
   # obs. used (total)      2867  
   data-arc span      28182 days (77.16 yr)  
   first obs. used      1943-02-26  
   last obs. used      2020-04-24  
   planetary ephem.      DE431  
   SB-pert. ephem.      SB431-N16  
   condition code      0  
   norm. resid. RMS      .41093  
   source      ORB  
   producer      Otto Matic  
   solution date      2020-May-20 01:27:00  

Additional Information
 Earth MOID = 1.0264 au 
 Jupiter MOID = 2.51944 au 
 T_jup = 3.621 
[ show covariance matrix ]

Ephemeris | Orbit Diagram | Orbital Elements | Mission Design | Physical Parameters | Discovery Circumstances ]

Physical Parameter Table
Parameter Symbol Value Units Sigma Reference Notes
absolute magnitude H 12.2   n/a MPO502168  
diameter diameter 7.970 km 0.810 urn:nasa:pds:neowise_diameters_albedos::2.0[mainbelt] (http://adsabs.harvard.edu/abs/2014ApJ...791..121M)  
rotation period rot_per 2.601 h n/a LCDB (Rev. 2019-August); Warner et al., 2009 Published Reference List:
[Fleenor, M.L. (2007) Minor Planet Bull. 34, 66-67.]
[Vander Haagen, G. (2007) Minor Planet Bull. 34, 107.]
[Pietschnig, M. (2011) http://web.utanet.at/pietschm/]
[Franco, L.; Baj, G.; Tinella, V.; Bachini, M.; et al. (2017) Minor Planet Bull. 44, 311-312.]
[Klinglesmith III, D.A.; Hendrickx, S.; Kimber, C.; Madden, K. (2017) Minor Planet Bull. 44, 244-246.]
geometric albedo albedo 0.297   0.095 urn:nasa:pds:neowise_diameters_albedos::2.0[mainbelt] (http://adsabs.harvard.edu/abs/2014ApJ...791..121M)  
B-V BV 0.930   0.020 EAR-A-5-DDR-UBV-MEAN-VALUES-V1.2 #obs=1; phase=10.74 deg.
U-B UB 0.550   0.032 EAR-A-5-DDR-UBV-MEAN-VALUES-V1.2 #obs=1; phase=10.74 deg.
Tholen spectral type spec_T S   n/a EAR-A-5-DDR-TAXONOMY-V4.0 used 2 color indices; used ground-based radiometric albedo

1602 Indiana (1950 GF)          Discovered 1950-Mar-14 by Goethe Link Observatory at Brooklyn
Discovered by the Indiana Asteroid Program, Goethe Link Observatory, University of Indiana. This program was conceived and directed by F. K. Edmondson; the plates were blinked and measured astrometrically by B. Potter and, following her retirement, by D. Owings; and the photometry was performed under the direction of T. Gehrels. During the years 1947-1967, in which the plates were exposed, a large number of people participated in various aspects of the program.
Reference: DISCOVERY.DBLast Updated: 2003-08-29

Alternate Designations
 1950 GF = 1943 DJ = 1975 XR 
Ephemeris | Orbit Diagram | Orbital Elements | Mission Design | Physical Parameters | Discovery Circumstances ]
ABOUT SSD CREDITS/AWARDS PRIVACY/COPYRIGHT GLOSSARY LINKS
FirstGov 2020-May-27 02:57 UT
(server date/time)  
NASA Home Page
Site Manager:   Ryan S. Park
Webmaster  Alan B. Chamberlin